TimeMST,TemperatureF,Dew PointF,Humidity,Sea Level PressureIn,VisibilityMPH,Wind Direction,Wind SpeedMPH,Gust SpeedMPH,PrecipitationIn,Events,Conditions,WindDirDegrees,DateUTC
12:15 AM,33.8,32.9,96,30.22,10.0,Calm,Calm,-,N/A,,Overcast,0,2012-11-17 07:15:00
12:35 AM,33.8,33.3,98,30.22,7.0,Calm,Calm,-,N/A,,Overcast,0,2012-11-17 07:35:00
12:55 AM,33.8,33.3,98,30.21,7.0,NE,3.5,-,N/A,,Overcast,40,2012-11-17 07:55:00
1:15 AM,33.8,33.3,98,30.22,10.0,Calm,Calm,-,N/A,,Overcast,0,2012-11-17 08:15:00
1:35 AM,34.0,33.3,97,30.21,10.0,Calm,Calm,-,N/A,,Overcast,0,2012-11-17 08:35:00
1:55 AM,33.8,33.1,97,30.21,10.0,South,3.5,-,N/A,,Overcast,180,2012-11-17 08:55:00
2:15 AM,33.8,33.3,98,30.21,5.0,Calm,Calm,-,N/A,,Overcast,0,2012-11-17 09:15:00
2:35 AM,33.3,32.9,99,30.21,4.0,Calm,Calm,-,N/A,,Overcast,0,2012-11-17 09:35:00
2:55 AM,33.3,32.9,99,30.22,5.0,Calm,Calm,-,N/A,,Overcast,0,2012-11-17 09:55:00
3:15 AM,33.3,32.9,99,30.21,5.0,Calm,Calm,-,N/A,,Overcast,0,2012-11-17 10:15:00
3:35 AM,33.8,33.4,99,30.21,10.0,Calm,Calm,-,N/A,,Overcast,0,2012-11-17 10:35:00
3:55 AM,32.9,32.5,99,30.21,5.0,NNW,5.8,-,N/A,,Overcast,330,2012-11-17 10:55:00
4:15 AM,32.9,32.7,99,30.21,5.0,Calm,Calm,-,N/A,,Overcast,0,2012-11-17 11:15:00
4:35 AM,33.1,32.9,99,30.21,10.0,Calm,Calm,-,N/A,,Overcast,0,2012-11-17 11:35:00
4:55 AM,34.0,33.6,99,30.21,10.0,Calm,Calm,-,N/A,,Overcast,0,2012-11-17 11:55:00
5:15 AM,32.9,32.5,99,30.21,2.0,Calm,Calm,-,N/A,,Overcast,0,2012-11-17 12:15:00
5:35 AM,32.9,32.5,99,30.21,5.0,Calm,Calm,-,N/A,,Overcast,0,2012-11-17 12:35:00
5:55 AM,32.9,32.7,99,30.21,10.0,Calm,Calm,-,N/A,,Overcast,0,2012-11-17 12:55:00
6:15 AM,32.9,32.9,100,30.21,10.0,Calm,Calm,-,N/A,,Overcast,0,2012-11-17 13:15:00
6:35 AM,32.9,32.9,100,30.20,10.0,Calm,Calm,-,N/A,,Overcast,0,2012-11-17 13:35:00
6:55 AM,32.9,32.9,100,30.21,1.8,Calm,Calm,-,N/A,,Overcast,0,2012-11-17 13:55:00
7:15 AM,32.9,32.7,99,30.21,0.5,NNW,4.6,-,N/A,,Overcast,340,2012-11-17 14:15:00
7:35 AM,33.8,33.8,100,30.22,10.0,Calm,Calm,-,N/A,,Overcast,0,2012-11-17 14:35:00
7:55 AM,33.8,33.6,99,30.21,10.0,Calm,Calm,-,N/A,,Overcast,0,2012-11-17 14:55:00
8:15 AM,34.0,33.8,99,30.21,10.0,Calm,Calm,-,N/A,,Overcast,0,2012-11-17 15:15:00
8:35 AM,35.1,34.3,97,30.21,10.0,Calm,Calm,-,N/A,,Overcast,0,2012-11-17 15:35:00
8:55 AM,35.6,34.7,97,30.21,10.0,Calm,Calm,-,N/A,,Overcast,0,2012-11-17 15:55:00
9:15 AM,37.6,35.8,93,30.21,10.0,Calm,Calm,-,N/A,,Overcast,0,2012-11-17 16:15:00
9:35 AM,39.0,35.8,88,30.21,10.0,Calm,Calm,-,N/A,,Overcast,0,2012-11-17 16:35:00
9:55 AM,40.1,36.7,88,30.21,10.0,NNW,3.5,-,N/A,,Overcast,330,2012-11-17 16:55:00
10:15 AM,40.3,34.3,79,30.21,10.0,Calm,Calm,-,N/A,,Overcast,0,2012-11-17 17:15:00
10:35 AM,41.5,34.5,76,30.20,10.0,Calm,Calm,-,N/A,,Overcast,0,2012-11-17 17:35:00
10:55 AM,42.1,34.3,74,30.19,10.0,WNW,3.5,-,N/A,,Overcast,300,2012-11-17 17:55:00
11:15 AM,45.3,36.0,70,30.18,10.0,NW,4.6,-,N/A,,Overcast,310,2012-11-17 18:15:00
11:35 AM,45.3,34.5,66,30.18,10.0,Calm,Calm,-,N/A,,Mostly Cloudy,0,2012-11-17 18:35:00
11:55 AM,46.2,34.2,63,30.16,10.0,Calm,Calm,-,N/A,,Overcast,0,2012-11-17 18:55:00
12:15 PM,47.8,34.5,60,30.15,10.0,Calm,Calm,-,N/A,,Overcast,0,2012-11-17 19:15:00
12:35 PM,47.5,32.2,55,30.15,10.0,Calm,Calm,-,N/A,,Overcast,0,2012-11-17 19:35:00
12:55 PM,48.4,34.2,58,30.14,10.0,Calm,Calm,-,N/A,,Mostly Cloudy,0,2012-11-17 19:55:00
1:15 PM,48.7,32.2,53,30.14,10.0,NW,5.8,-,N/A,,Mostly Cloudy,310,2012-11-17 20:15:00
1:35 PM,48.4,31.5,52,30.14,10.0,West,5.8,-,N/A,,Overcast,270,2012-11-17 20:35:00
1:55 PM,47.8,32.2,55,30.14,10.0,NW,4.6,-,N/A,,Mostly Cloudy,320,2012-11-17 20:55:00
2:15 PM,48.2,31.1,52,30.13,10.0,Calm,Calm,-,N/A,,Mostly Cloudy,0,2012-11-17 21:15:00
2:35 PM,48.2,31.3,52,30.13,10.0,Calm,Calm,-,N/A,,Overcast,0,2012-11-17 21:35:00
2:55 PM,47.3,31.6,55,30.13,10.0,Calm,Calm,-,N/A,,Overcast,0,2012-11-17 21:55:00
3:15 PM,46.9,31.6,55,30.14,10.0,Calm,Calm,-,N/A,,Overcast,0,2012-11-17 22:15:00
3:35 PM,45.9,31.1,56,30.13,10.0,Calm,Calm,-,N/A,,Overcast,0,2012-11-17 22:35:00
3:55 PM,45.7,32.0,59,30.14,10.0,Calm,Calm,-,N/A,,Overcast,0,2012-11-17 22:55:00
4:15 PM,46.0,30.9,56,30.13,10.0,Calm,Calm,-,N/A,,Overcast,0,2012-11-17 23:15:00
4:35 PM,45.1,31.6,59,30.12,10.0,Calm,Calm,-,N/A,,Overcast,0,2012-11-17 23:35:00
5:15 PM,43.2,30.9,62,30.12,10.0,Calm,Calm,-,N/A,,Overcast,0,2012-11-18 00:15:00
5:35 PM,42.6,30.7,63,30.11,10.0,East,3.5,-,N/A,,Overcast,100,2012-11-18 00:35:00
5:55 PM,41.0,30.9,67,30.11,10.0,ESE,3.5,-,N/A,,Scattered Clouds,120,2012-11-18 00:55:00
6:15 PM,40.8,30.0,65,30.11,10.0,Calm,Calm,-,N/A,,Scattered Clouds,0,2012-11-18 01:15:00
6:35 PM,39.4,30.2,70,30.11,10.0,Calm,Calm,-,N/A,,Scattered Clouds,0,2012-11-18 01:35:00
6:55 PM,39.6,30.0,69,30.11,10.0,Calm,Calm,-,N/A,,Clear,0,2012-11-18 01:55:00
7:15 PM,37.6,30.6,76,30.11,10.0,Calm,Calm,-,N/A,,Scattered Clouds,0,2012-11-18 02:15:00
7:35 PM,37.8,30.2,74,30.11,10.0,Calm,Calm,-,N/A,,Mostly Cloudy,0,2012-11-18 02:35:00
7:55 PM,37.0,30.6,77,30.11,10.0,Calm,Calm,-,N/A,,Overcast,0,2012-11-18 02:55:00
8:15 PM,37.6,30.6,76,30.11,10.0,Calm,Calm,-,N/A,,Overcast,0,2012-11-18 03:15:00
8:35 PM,36.0,30.7,81,30.11,10.0,Calm,Calm,-,N/A,,Mostly Cloudy,0,2012-11-18 03:35:00
8:55 PM,36.5,30.9,80,30.12,10.0,Calm,Calm,-,N/A,,Overcast,0,2012-11-18 03:55:00
9:15 PM,37.4,30.6,76,30.12,10.0,Calm,Calm,-,N/A,,Overcast,0,2012-11-18 04:15:00
9:35 PM,35.8,31.1,83,30.11,10.0,East,3.5,-,N/A,,Overcast,90,2012-11-18 04:35:00
9:55 PM,36.1,31.1,82,30.11,10.0,ESE,4.6,-,N/A,,Overcast,120,2012-11-18 04:55:00
10:15 PM,35.4,30.9,84,30.11,10.0,Calm,Calm,-,N/A,,Overcast,0,2012-11-18 05:15:00
10:35 PM,37.4,31.1,78,30.10,10.0,East,3.5,-,N/A,,Overcast,80,2012-11-18 05:35:00
10:55 PM,36.9,30.9,79,30.10,10.0,East,4.6,-,N/A,,Overcast,90,2012-11-18 05:55:00
11:15 PM,36.5,31.1,81,30.10,10.0,Calm,Calm,-,N/A,,Overcast,0,2012-11-18 06:15:00
11:35 PM,34.9,31.1,86,30.10,10.0,WNW,3.5,-,N/A,,Overcast,290,2012-11-18 06:35:00
11:55 PM,35.2,30.9,84,30.10,10.0,Calm,Calm,-,N/A,,Overcast,0,2012-11-18 06:55:00